Location: Pradinas
(44.2395°N, 2.2654°E)
Time: 15:05:22
(UTC+00:00)

Daily predictions for brighter satellites

Satellite Brightness Start Highest point End
(mag) Time Altitude Azimuth Time Altitude Azimuth Time Altitude Azimuth
BREEZE-M DEB 4.1 20:04:47 10° W 20:09:07 86° N 20:18:31 10° E
NOSS 2-3 (D) 3.2 20:07:00 10° SW 20:10:44 87° NW 20:14:30 10° NE
USA 186 3.1 20:12:10 10° E 20:13:06 12° ENE 20:14:01 10° NE
CZ-4 R/B 2.3 20:10:26 10° S 20:14:05 46° W 20:17:50 10° NNW
Okean-O 3.2 20:10:01 10° SE 20:14:07 41° ENE 20:18:15 10° N
Helios 1A Rocket 2.2 20:20:04 10° NNE 20:23:10 66° ESE 20:26:15 10° S
ADEOS 3.6 20:19:44 10° SSE 20:24:57 90° ENE 20:30:11 10° NNW
Cosmos 1758 3.3 20:21:44 10° NNW 20:25:26 75° W 20:29:07 10° S
SL-08 R/B 3.2 20:22:15 10° NNE 20:26:50 70° ESE 20:31:23 10° S
Cosmos 1655 Rocket 4.3 20:20:47 10° N 20:27:10 77° W 20:33:32 10° S
NOSS 2-3 (C) 2.9 20:24:56 10° SW 20:28:22 89° WNW 20:31:53 10° NE
SL-14 R/B 4.3 20:26:56 10° SSW 20:30:30 46° WNW 20:34:07 10° N
Cosmos 2344 3.8 20:23:40 10° S 20:31:25 45° ESE 20:38:09 10° NE
Cosmos 1500 Rocket 3.5 20:29:49 10° N 20:34:07 71° E 20:38:22 10° SSE
Cosmos 2285 Rocket 4.2 20:27:47 10° NNW 20:34:11 80° WSW 20:40:35 10° SSE
Cosmos 1703 3.0 20:32:03 10° S 20:35:05 46° E 20:38:08 10° NNE
Ariane Rocket 4.1 20:31:59 10° SE 20:36:23 31° ENE 20:40:49 10° N
MOS 1-B 4.4 20:30:46 10° SSE 20:36:33 72° ENE 20:42:20 10° N
USA 276 2.6 20:35:57 10° S 20:37:32 19° SE 20:39:18 10° E
Spot 2 Rocket 3.5 20:33:21 10° SSE 20:38:25 88° ENE 20:43:33 10° NNW
ERS-1 Rocket 4.1 20:34:05 10° S 20:38:49 42° W 20:43:34 10° NNW
CZ-4B R/B 4.0 20:37:35 12° SE 20:40:41 29° ENE 20:44:10 10° N
Cosmos 1538 Rocket 4.0 20:35:50 10° SSW 20:41:00 79° ESE 20:46:16 10° NNE
Iridium 4 Rocket 4.1 20:37:43 10° SSE 20:42:25 38° E 20:46:49 10° NNE
Cosmos 1263 4.5 20:38:56 10° S 20:42:48 89° W 20:46:02 10° N
Okean O Rocket 1.6 20:38:30 10° SSE 20:42:51 84° ENE 20:47:16 10° NNW
Terra 2.9 20:38:34 10° S 20:43:01 41° W 20:47:28 10° NNW
CZ-4B R/B 3.8 20:38:41 10° S 20:43:58 55° W 20:49:12 10° NNW
USA 59 Rocket 0.4 20:41:17 10° S 20:44:47 28° ESE 20:47:37 10° ENE
Cosmos 1833 Rocket 2.8 20:40:27 10° NNW 20:46:06 75° ENE 20:51:06 13° SSE
NOSS 2-1 (D) 4.1 20:46:06 10° S 20:49:37 27° ESE 20:52:30 10° ENE
CZ-4B R/B 4.3 20:47:02 13° SE 20:51:11 39° ENE 20:56:00 10° N
Cosmos 1328 Rocket 4.2 20:53:52 15° SSE 20:57:03 37° E 21:01:02 10° NNE
Cosmos 1151 Rocket 3.8 20:53:06 10° SSW 20:57:19 53° W 21:01:34 10° N
Cosmos 1953 2.4 20:55:43 10° N 20:59:11 49° ENE 21:01:29 19° SSE
S3M 4.3 20:54:09 11° SSE 20:59:38 48° E 21:05:31 10° NNE
Cosmos 1553 Rocket 4.2 20:54:33 10° SSW 21:00:53 78° W 21:07:11 10° N
GP-B 3.2 20:58:33 10° N 21:02:52 55° E 21:06:09 16° SSE
BREEZE-M R/B 3.2 21:01:52 10° WSW 21:05:29 83° SSE 21:12:27 10° ENE
CZ-2C R/B 4.0 21:05:29 14° E 21:06:22 15° ENE 21:08:04 10° NNE
Cosmos 2082 Rocket 3.7 21:04:32 10° N 21:09:13 26° NE 21:13:35 11° ESE
NOSS 2-1 (C) 3.7 21:05:33 10° S 21:09:22 34° ESE 21:12:25 10° NE
Cosmos 1709 Rocket 4.4 21:03:42 10° N 21:09:56 52° ENE 21:14:35 18° SSE
Cosmos 2278 Rocket 2.6 21:06:56 11° S 21:12:00 43° ESE 21:17:18 10° NE
Cosmos 494 Rocket 4.5 21:09:00 15° SSE 21:12:50 40° ESE 21:17:43 10° NE
Cosmos 1666 Rocket 3.6 21:15:04 10° N 21:19:22 65° E 21:21:56 23° SSE
USA 238 DEB 3.4 21:15:11 10° SSW 21:21:10 74° ESE 21:27:47 10° NE
USA 238 3.4 21:15:24 10° SSW 21:21:24 73° ESE 21:28:01 10° NE
SPOT 3 Rocket 3.6 21:17:22 17° S 21:21:24 81° WSW 21:26:36 10° NNW
Lacrosse 5 rocket 3.8 21:20:31 10° W 21:23:22 22° NNW 21:26:12 10° NNE
Cosmos 1943 Rocket 2.1 21:18:09 10° SSW 21:23:46 70° ESE 21:29:23 10° NNE
SL-8 R/B 3.7 21:22:22 10° SW 21:26:56 52° SSE 21:31:33 10° ENE
Cosmos 1743 Rocket 4.3 21:23:00 10° NNW 21:27:12 48° W 21:30:49 13° SSW
Timation 1 Rocket 4.4 21:25:39 10° NNW 21:31:36 74° WSW 21:35:36 22° SSE
USA 245 3.4 21:35:12 24° SSW 21:36:34 41° WSW 21:39:07 10° NNW
Cosmos 1745 Rocket 4.1 21:30:57 10° N 21:37:15 77° W 21:42:08 18° S
Cosmos 1515 Rocket 4.1 21:36:36 28° SE 21:38:16 40° E 21:42:20 10° NNE
USA 186 3.8 21:41:41 10° WSW 21:42:14 11° W 21:42:48 10° W
Okean 2 3.3 21:42:54 34° SSE 21:44:21 59° E 21:48:09 10° NNE
Cosmos 1680 Rocket 3.5 21:41:11 11° SSW 21:46:11 88° WNW 21:51:25 10° NNE
Cosmos 1624 Rocket 4.0 21:42:17 10° NNW 21:47:37 75° ENE 21:50:25 29° SSE
Cosmos 1633 Rocket 3.1 21:44:47 10° NNW 21:49:10 73° W 21:51:28 27° S
Cosmos 2369 Rocket 4.2 21:50:39 11° E 21:50:58 11° E 21:52:35 10° ENE
Cosmos 1400 Rocket 3.4 21:48:55 10° N 21:52:20 37° ENE 21:53:10 32° ESE
Cosmos 2056 Rocket 3.4 21:51:32 10° NNW 21:56:39 88° WSW 21:59:06 32° SSE
ARIANE 6 FM1 Upper Stage 4.4 21:58:06 18° E 21:58:06 18° E 21:59:56 10° ENE
Meteor 1-23 Rocket 4.3 21:54:50 16° SSW 21:59:15 74° WNW 22:04:51 10° N
Cosmos 1656 Rocket 4.4 21:59:37 29° SE 22:01:03 33° ESE 22:05:57 10° NE
USA 215 4.2 22:01:59 10° E 22:08:04 44° NNE 22:14:11 10° NW
USA 276 2.6 22:07:47 10° W 22:10:01 43° NNW 22:12:32 10° NE
NOSS 2-1 (E) 3.8 22:10:36 10° SW 22:14:34 52° NW 22:17:46 10° NNE
Ariane Rocket 4.2 22:12:03 18° SSW 22:15:10 34° W 22:19:47 10° NNW
Cosmos 2074 Rocket 4.3 22:09:44 10° N 22:15:49 53° ENE 22:18:40 30° SE
NOSS 3-1 (C) 3.8 22:21:46 27° ESE 22:21:46 27° ESE 22:25:54 10° NE
USA 308 3.9 22:26:25 21° NE 22:26:25 21° NE 22:27:53 10° NE
Helios 1B rocket 3.1 22:24:53 30° E 22:25:15 30° ENE 22:28:20 10° N
CZ-4B R/B 4.5 22:22:25 10° NNE 22:26:47 84° ESE 22:28:09 43° S
Lacrosse 4 Rocket 4.1 22:27:08 10° NNE 22:28:56 12° NE 22:30:45 10° ENE
USA 59 Rocket 1.9 22:30:33 10° W 22:33:14 20° NW 22:35:37 10° N
Cosmos 1441 Rocket 2.7 22:33:47 74° W 22:33:50 75° W 22:37:04 10° N
ATLAS 5 CENTAUR R/B 2.5 22:37:18 21° ENE 22:37:18 21° ENE 22:38:33 10° NE
Okean 3 3.4 22:34:53 46° SSW 22:35:56 69° W 22:39:57 10° N
CZ-2C R/B 4.1 22:36:44 18° W 22:36:44 18° W 22:38:38 10° NW
Cosmos 1933 Rocket 3.5 22:33:01 10° N 22:37:21 79° W 22:38:23 51° S
Nadezhda 1 Rocket 4.3 22:36:03 35° SE 22:38:18 51° E 22:44:19 10° NNE
COSMOS 2455 4.4 22:38:34 19° ESE 22:38:52 19° ESE 22:42:53 10° ENE
Cosmos 1110 Rocket 3.9 22:38:37 10° NNW 22:43:48 82° WSW 22:45:24 46° S
Exosat Rocket 4.3 22:44:00 38° SSE 22:46:04 54° ESE 22:53:31 10° NNE
Cosmos 967 Rocket 4.5 22:50:17 34° SSW 22:53:16 70° ESE 22:59:43 10° NE
Cosmos 2082 Rocket 2.5 22:48:09 10° NNW 22:53:37 54° WSW 22:55:23 39° SSW
Cosmos 1452 Rocket 3.5 22:48:57 10° NNW 22:54:15 79° ENE 22:55:52 46° SSE
SL-4 R/B 2.6 22:55:57 33° NE 22:55:57 33° NE 22:57:52 10° ENE
Helios 1A 3.4 22:51:25 10° N 22:55:17 53° WNW 22:56:22 39° WSW
ACS3 Solar Sail 3.3 22:51:34 10° NE 22:55:19 18° E 22:56:47 16° ESE
Cosmos 2278 Rocket 3.8 22:51:08 10° WSW 22:56:10 32° NW 23:01:13 10° N
Cosmos 614 Rocket 3.8 22:57:55 43° SSW 22:59:37 88° WNW 23:04:42 10° NNE
Cosmos 2184 Rocket 4.1 22:56:32 10° NNW 23:02:48 72° W 23:05:24 37° SSW
Cosmos 2154 Rocket 4.0 22:57:48 10° N 23:04:01 76° W 23:06:28 39° S
ARIANE 5 R/B 2.6 23:05:10 58° SE 23:05:59 76° ENE 23:10:24 10° N
Cosmos 1331 Rocket 4.3 23:02:59 10° NNW 23:08:00 54° WSW 23:09:16 43° SSW
Cosmos 1943 Rocket 4.5 23:03:46 10° W 23:08:02 22° NW 23:12:19 10° N
SL-8 R/B 4.1 23:04:33 10° W 23:09:14 61° NNW 23:13:57 10° ENE
Cosmos 1869 Rocket 4.0 23:05:24 10° NNW 23:09:33 48° W 23:10:17 43° SW
CZ-2C R/B 3.8 23:07:12 10° N 23:11:55 77° WNW 23:13:09 49° SSW
ARGOS Delta rocket 4.4 23:08:09 10° N 23:13:16 57° WNW 23:15:12 34° SW
CZ-2C R/B 3.6 23:16:25 27° ESE 23:18:28 38° ENE 23:23:18 10° N
CZ-3B R/B 3.7 23:16:36 38° SSE 23:18:46 52° ESE 23:37:46 10° NE
CZ-2C R/B 3.4 23:13:43 10° NNE 23:18:52 49° E 23:19:49 43° SE
SL-12 R/B(2) 4.2 23:15:35 24° SSW 23:20:55 88° SE 23:30:31 10° NE
Cosmos 1733 Rocket 2.8 23:17:16 10° N 23:21:35 87° ENE 23:22:03 71° SSE
ALOS 2 2.4 23:21:23 66° S 23:21:59 85° WSW 23:26:25 10° NNW
Cosmos 1707 Rocket 3.4 23:22:47 68° SSE 23:23:16 78° E 23:27:41 10° N
Cosmos 2228 Rocket 3.2 23:26:00 54° ESE 23:26:21 56° E 23:30:41 10° NNE
Cosmos 2341 Rocket 4.3 23:20:23 10° N 23:26:30 55° ENE 23:28:53 35° SE
IRIDIUM 104 4.3 23:26:08 10° N 23:31:23 78° E 23:32:38 52° SSE
USA 290 3.3 23:28:37 10° N 23:31:10 40° NE 23:31:10 40° NE
Cosmos 1356 Rocket 4.2 23:28:03 10° N 23:31:50 39° ENE 23:32:18 37° E
Cosmos 2369 Rocket 2.1 23:32:23 48° SSW 23:33:59 83° ESE 23:39:38 10° NNE
Cosmos 1862 Rocket 3.5 23:34:20 63° SW 23:34:50 72° W 23:39:08 10° N
ARIANE 6 FM1 Upper Stage 3.4 23:33:59 32° WSW 23:35:33 50° NW 23:39:35 10° NNE
COSMOS 2406 3.5 23:30:29 10° NNW 23:36:01 54° WSW 23:37:19 44° SSW
Cosmos 1315 Rocket 2.7 23:34:19 10° N 23:38:04 73° ENE 23:38:04 73° ENE
Cosmos 2297 3.6 23:36:40 48° S 23:38:18 77° ESE 23:44:02 10° NNE
IRIDIUM 114 4.2 23:35:17 10° N 23:40:32 87° W 23:41:46 54° S
USA 276 4.3 23:41:00 10° WNW 23:43:09 22° N 23:45:28 10° NE
Cosmos 972 Rocket 4.2 23:43:22 10° NNW 23:48:39 53° WSW 23:49:35 47° SW
Okean 1-7 3.5 23:48:24 44° WSW 23:48:59 47° WNW 23:53:05 10° N
IRIDIUM 103 4.3 23:44:27 10° N 23:49:41 73° W 23:50:55 52° SSW
USA 215 3.1 23:47:35 33° SE 23:50:49 76° SW 23:57:23 10° NW
Cosmos 1302 Rocket 4.3 23:47:47 10° NNW 23:52:55 52° WSW 23:53:49 46° SW
PSLV R/B 4.4 23:50:52 10° N 23:55:19 47° WNW 23:56:35 37° WSW
